Location: Bidwell Hollow
(37.7387°N, 90.1707°W)
Time: 10:39:03
(UTC+00:00)

Explorer 7 - All Passes

Search period start: 15 May 2026 00:00
Search period end: 25 May 2026 00:00
Orbit: 427 x 536 km, 50.2° (Epoch: 14 May)

Date Brightness Start Highest point End Pass type
(mag) Time Alt. Az. Time Alt. Az. Time Alt. Az.
15 May - 09:27:53 10° S 09:30:31 20° SE 09:33:14 10° E visible
15 May - 11:05:08 10° WSW 11:08:33 45° NNW 11:12:06 10° NE daylight
15 May - 12:45:26 10° NW 12:47:36 15° NNW 12:49:48 10° NNE daylight
15 May - 14:25:14 10° NNW 14:27:09 13° N 14:29:06 10° NE daylight
15 May - 16:02:54 10° NW 16:06:23 31° NNE 16:09:57 10° E daylight
15 May - 17:41:02 10° WNW 17:44:48 44° SW 17:48:39 10° SSE daylight
16 May - 09:00:22 10° S 09:02:50 18° SE 09:05:21 10° E visible
16 May - 10:37:24 10° WSW 10:40:49 49° NNW 10:44:23 10° NE daylight
16 May - 12:17:37 10° NW 12:19:49 15° NNW 12:22:04 10° NNE daylight
16 May - 13:57:33 10° NNW 13:59:22 13° N 14:01:12 10° NE daylight
16 May - 15:35:13 10° NW 15:38:38 29° NNE 15:42:07 10° E daylight
16 May - 17:13:17 10° WNW 17:17:04 48° SW 17:20:57 10° SSE daylight
17 May - 08:32:53 10° S 08:35:09 16° SE 08:37:27 10° E visible
17 May - 10:09:39 10° WSW 10:13:05 53° NNW 10:16:39 10° NE visible
17 May - 11:49:47 10° NW 11:52:02 15° NNW 11:54:19 10° NNE daylight
17 May - 13:29:51 10° NNW 13:31:34 13° N 13:33:18 10° NNE daylight
17 May - 15:07:32 10° NW 15:10:51 27° NNE 15:14:16 10° E daylight
17 May - 16:45:31 10° WNW 16:49:20 53° SW 16:53:14 10° SE daylight
18 May - 08:05:25 10° SSE 08:07:27 15° SE 08:09:29 10° E visible
18 May - 09:41:54 10° WSW 09:45:20 58° NW 09:48:54 10° NE visible
18 May - 11:21:57 10° NW 11:24:14 16° NNW 11:26:34 10° NNE daylight
18 May - 13:02:09 10° NNW 13:03:45 12° N 13:05:23 10° NNE daylight
18 May - 14:39:50 10° NNW 14:43:04 26° NNE 14:46:22 10° E daylight
18 May - 16:17:45 10° WNW 16:21:34 58° SW 16:25:30 10° SE daylight
19 May - 07:38:00 10° SSE 07:39:45 13° SE 07:41:30 10° E visible
19 May - 09:14:09 10° WSW 09:17:35 64° NW 09:21:09 10° NE visible
19 May - 10:54:07 10° WNW 10:56:26 16° NNW 10:58:49 10° NNE daylight
19 May - 12:34:25 10° NNW 12:35:57 12° N 12:37:28 10° NNE daylight
19 May - 14:12:07 10° NNW 14:15:16 24° NNE 14:18:29 10° E daylight
19 May - 15:50:00 10° WNW 15:53:49 64° SW 15:57:45 10° SE daylight
20 May - 07:10:40 10° SSE 07:12:01 12° SE 07:13:24 10° ESE visible
20 May - 08:46:24 10° WSW 08:49:50 70° NW 08:53:22 10° NE visible
20 May - 10:26:16 10° WNW 10:28:38 17° NNW 10:31:03 10° NNE daylight
20 May - 12:06:41 10° NNW 12:08:07 12° N 12:09:34 10° NNE daylight
20 May - 13:44:25 10° NNW 13:47:27 23° NNE 13:50:34 10° ENE daylight
20 May - 15:22:14 10° WNW 15:26:03 70° SW 15:29:59 10° SE daylight
21 May - 06:43:30 10° SE 06:44:18 11° SE 06:45:06 10° ESE visible
21 May - 08:18:38 10° SW 08:22:04 78° NW 08:25:36 10° NE visible
21 May - 09:58:24 10° WNW 10:00:49 17° NNW 10:03:17 10° NNE visible
21 May - 11:38:56 10° NNW 11:40:17 12° N 11:41:38 10° NNE daylight
21 May - 13:16:42 10° NNW 13:19:39 22° NNE 13:22:40 10° ENE daylight
21 May - 14:54:28 10° NW 14:58:16 77° SW 15:02:11 10° SE daylight
22 May - 07:50:52 10° SW 07:54:18 85° NNW 07:57:48 10° NE visible
22 May - 09:30:32 10° WNW 09:33:00 18° NNW 09:35:31 10° NNE visible
22 May - 11:11:11 10° NNW 11:12:26 11° N 11:13:42 10° NNE daylight
22 May - 12:48:59 10° NNW 12:51:50 20° NNE 12:54:44 10° ENE daylight
22 May - 14:26:42 10° NW 14:30:28 84° SW 14:34:22 10° SE daylight
22 May - 16:07:39 10° WSW 16:08:17 10° SW 16:08:55 10° SW daylight
23 May - 07:23:06 10° SW 07:26:31 86° SE 07:30:00 10° NE visible
23 May - 09:02:39 10° WNW 09:05:10 18° NNW 09:07:44 10° NNE visible
23 May - 10:43:24 10° NNW 10:44:35 11° N 10:45:47 10° NNE daylight
23 May - 12:21:15 10° NNW 12:23:59 19° NNE 12:26:47 10° ENE daylight
23 May - 13:58:55 10° NW 14:02:40 89° NE 14:06:34 10° SE daylight
23 May - 15:39:14 10° WSW 15:40:31 11° SW 15:41:50 10° SSW daylight
24 May - 06:55:20 10° SW 06:58:44 78° SE 07:02:12 10° NE visible
24 May - 08:34:46 10° WNW 08:37:20 19° NNW 08:39:58 10° NNE visible
24 May - 10:15:36 10° NNW 10:16:43 11° N 10:17:52 10° NNE visible
24 May - 11:53:31 10° NNW 11:56:08 18° NNE 11:58:49 10° ENE daylight
24 May - 13:31:08 10° NW 13:34:51 81° NE 13:38:43 10° SE daylight
24 May - 15:11:04 10° WSW 15:12:45 12° SW 15:14:26 10° SSW daylight
